FW9014 Weather Reports


Display with metric or nautical units.
time (UTC)temp
F
wind
direction
speed
MPH
gust
MPH
rain 1hr
in
rain 24hr
in
rain mn
in
humidity
%
barometer
mb
20260509200049 85 329 2.0 4.0 0.00 0.00 0.00 72 1009.6
20260509194553 86 0 0.0 1.0 0.00 0.01 0.00 72 1009.6
20260509193053 85 0 0.0 4.0 0.00 0.01 0.00 73 1009.9
20260509191550 85 212 2.0 4.0 0.00 0.01 0.00 73 1010.0
20260509190048 84 202 2.0 4.0 0.00 0.01 0.00 74 1010.1
20260509184553 82 200 2.0 3.0 0.00 0.01 0.00 78 1010.4
20260509183054 80 192 3.0 5.0 0.00 0.01 0.00 83 1010.6
20260509181559 80 202 5.0 6.0 0.00 0.01 0.00 84 1010.8
20260509180055 77 279 1.0 2.0 0.00 0.01 0.00 85 1010.9
20260509174548 77 0 0.0 1.0 0.00 0.01 0.00 89 1011.1
20260509173049 76 355 2.0 5.0 0.00 0.01 0.00 92 1011.2
20260509171551 76 0 0.0 0.0 0.00 0.01 0.00 96 1011.2
20260509170051 75 164 2.0 5.0 0.00 0.01 0.00 96 1011.0
20260509164545 74 0 0.0 4.0 0.00 0.01 0.00 96 1011.2
20260509163052 74 355 2.0 4.0 0.00 0.01 0.00 96 1011.5
20260509161548 74 0 0.0 0.0 0.00 0.01 0.00 96 1011.7
20260509160049 74 0 0.0 3.0 0.00 0.01 0.00 96 1011.7
20260509154547 74 150 1.0 3.0 0.00 0.01 0.00 96 1011.8
20260509153059 73 150 1.0 5.0 0.00 0.01 0.00 97 1011.8
20260509151549 73 189 3.0 5.0 0.00 0.01 0.00 97 1011.4
20260509150050 73 0 0.0 3.0 0.00 0.01 0.00 96 1011.2
20260509144546 73 0 0.0 2.0 0.00 0.01 0.00 96 1010.8
20260509143050 73 0 2.0 9.0 0.00 0.01 0.00 96 1010.5
20260509141546 73 209 7.0 10.0 0.00 0.01 0.00 97 1010.3
20260509140052 73 190 7.0 10.0 0.00 0.01 0.00 96 1010.3
20260509134549 73 180 5.0 7.0 0.00 0.01 0.00 96 1010.8
20260509133048 73 195 6.0 8.0 0.00 0.01 0.00 96 1011.1
20260509131548 72 207 5.0 7.0 0.00 0.01 0.00 96 1011.3
20260509130047 72 248 0.0 1.0 0.00 0.01 0.00 96 1011.4
20260509124547 72 0 0.0 0.0 0.00 0.01 0.00 96 1011.4
20260509123053 72 0 0.0 0.0 0.00 0.01 0.00 96 1011.3
20260509121548 72 0 1.0 5.0 0.00 0.01 0.00 96 1011.1
20260509120058 72 177 3.0 6.0 0.00 0.01 0.00 96 1011.0
20260509114547 72 163 3.0 6.0 0.00 0.01 0.00 96 1010.8
20260509113045 72 192 3.0 5.0 0.00 0.01 0.00 96 1010.8
20260509111546 72 0 0.0 3.0 0.00 0.01 0.00 96 1010.1
20260509110053 72 207 1.0 5.0 0.00 0.01 0.00 96 1009.8
20260509104546 72 202 4.0 7.0 0.00 0.01 0.00 96 1010.1
20260509103051 72 144 4.0 6.0 0.00 0.01 0.00 96 1010.2
20260509101554 72 94 0.0 2.0 0.00 0.01 0.00 96 1010.6
20260509100046 72 0 0.0 0.0 0.00 0.01 0.00 96 1010.5
20260509094545 72 0 0.0 1.0 0.00 0.01 0.00 96 1010.4
20260509093048 72 0 0.0 2.0 0.00 0.01 0.00 96 1010.4
20260509091609 72 221 2.0 4.0 0.00 0.01 0.00 96 1010.5
20260509090048 72 214 3.0 5.0 0.00 0.01 0.00 96 1010.6
20260509084549 72 180 3.0 5.0 0.00 0.01 0.00 96 1010.5
20260509083052 72 168 3.0 6.0 0.00 0.01 0.00 96 1010.6
20260509081546 72 171 4.0 6.0 0.00 0.01 0.00 96 1010.7
20260509080059 72 152 2.0 8.0 0.00 0.01 0.00 95 1010.6
20260509074554 72 140 1.0 7.0 0.00 0.01 0.00 95 1010.7
20260509073115 72 163 8.0 11.0 0.00 0.01 0.00 95 1010.7
20260509071547 72 184 7.0 9.0 0.00 0.01 0.00 95 1010.8
20260509070048 72 178 6.0 9.0 0.00 0.01 0.00 95 1010.9
20260509064549 72 150 6.0 9.0 0.00 0.01 0.00 95 1010.8
20260509063049 71 176 7.0 12.0 0.00 0.01 0.00 95 1011.0
20260509061556 72 186 8.0 13.0 0.00 0.01 0.00 95 1010.9
20260509060105 71 173 8.0 11.0 0.00 0.01 0.00 94 1011.0
20260509054558 71 183 8.0 11.0 0.00 0.01 0.00 94 1011.1
20260509053054 72 169 9.0 11.0 0.00 0.01 0.00 94 1011.1
20260509051549 72 173 7.0 11.0 0.00 0.01 0.00 94 1011.3
20260509050055 71 163 8.0 11.0 0.00 0.01 0.00 94 1011.2
20260509044548 71 165 8.0 11.0 0.00 0.01 0.01 93 1011.1
20260509043049 72 157 6.0 11.0 0.00 0.01 0.01 93 1011.2
20260509041549 72 162 8.0 12.0 0.00 0.01 0.01 93 1011.3
20260509040124 72 171 10.0 16.0 0.00 0.01 0.01 93 1011.1
20260509034550 72 174 13.0 17.0 0.00 0.01 0.01 93 1011.0
20260509033047 72 171 12.0 16.0 0.00 0.01 0.01 92 1010.6
20260509031547 72 169 10.0 14.0 0.00 0.01 0.01 91 1010.7
20260509030051 72 165 10.0 14.0 0.00 0.01 0.01 91 1010.6
20260509024555 72 165 12.0 18.0 0.00 0.01 0.01 91 1010.2
20260509023047 73 166 13.0 18.0 0.00 0.01 0.01 90 1010.1
20260509021547 73 167 11.0 15.0 0.00 0.01 0.01 89 1010.1
20260509020049 73 128 3.0 11.0 0.00 0.01 0.01 87 1009.9
20260509014544 73 147 4.0 8.0 0.00 0.01 0.01 86 1010.1
20260509013059 74 163 4.0 8.0 0.00 0.01 0.01 86 1010.1
20260509011558 74 138 9.0 12.0 0.00 0.01 0.01 86 1009.8
20260509010049 74 155 8.0 13.0 0.00 0.01 0.01 86 1010.1
20260509004604 75 171 9.0 13.0 0.00 0.01 0.01 85 1010.0
20260509003053 75 117 5.0 13.0 0.00 0.01 0.01 85 1009.4
20260509001551 75 154 10.0 12.0 0.00 0.01 0.01 85 1009.9
20260509000049 75 167 9.0 12.0 0.00 0.01 0.01 85 1010.1
20260508234548 75 165 6.0 11.0 0.00 0.01 0.01 85 1010.1
20260508233047 75 157 4.0 9.0 0.00 0.01 0.01 85 1010.3
20260508231545 75 168 7.0 10.0 0.00 0.01 0.01 86 1010.1
20260508230053 75 169 7.0 11.0 0.00 0.01 0.01 87 1009.9
20260508224545 75 173 7.0 9.0 0.00 0.01 0.01 87 1010.0
20260508223055 75 165 8.0 11.0 0.00 0.01 0.01 87 1010.0
20260508221548 76 190 9.0 11.0 0.00 0.01 0.01 85 1010.1
20260508220049 76 206 3.0 5.0 0.00 0.01 0.01 83 1010.2
20260508214554 76 209 3.0 4.0 0.00 0.01 0.01 83 1010.3
20260508213044 75 0 0.0 0.0 0.00 0.01 0.01 85 1010.2
20260508211544 74 0 0.0 3.0 0.00 0.01 0.01 87 1010.3
20260508210051 73 296 3.0 7.0 0.00 0.01 0.01 87 1010.8
20260508204548 73 290 4.0 7.0 0.00 0.01 0.01 87 1010.8
20260508203048 73 293 3.0 8.0 0.00 0.01 0.01 87 1010.8
20260508201546 73 292 5.0 8.0 0.00 0.01 0.01 87 1010.9